TimeEDT,TemperatureF,Dew PointF,Humidity,Sea Level PressureIn,VisibilityMPH,Wind Direction,Wind SpeedMPH,Gust SpeedMPH,PrecipitationIn,Events,Conditions,WindDirDegrees,DateUTC
12:05 AM,46.4,41.0,81,30.35,10.0,Calm,Calm,-,N/A,,Clear,0,2013-05-04 04:05:00
12:25 AM,46.4,41.0,81,30.35,10.0,Calm,Calm,-,N/A,,Clear,0,2013-05-04 04:25:00
12:45 AM,46.4,41.0,81,30.35,10.0,Calm,Calm,-,N/A,,Clear,0,2013-05-04 04:45:00
1:25 AM,44.6,39.2,81,30.34,10.0,Calm,Calm,-,N/A,,Clear,0,2013-05-04 05:25:00
1:45 AM,44.6,39.2,81,30.33,10.0,Calm,Calm,-,N/A,,Clear,0,2013-05-04 05:45:00
2:05 AM,44.6,39.2,81,30.32,10.0,Calm,Calm,-,N/A,,Clear,0,2013-05-04 06:05:00
2:25 AM,42.8,39.2,87,30.31,10.0,Calm,Calm,-,N/A,,Clear,0,2013-05-04 06:25:00
2:50 AM,42.8,39.2,87,30.30,10.0,Calm,Calm,-,N/A,,Clear,0,2013-05-04 06:50:00
3:10 AM,42.8,37.4,81,30.30,10.0,Calm,Calm,-,N/A,,Clear,0,2013-05-04 07:10:00
3:30 AM,42.8,39.2,87,30.30,10.0,Calm,Calm,-,N/A,,Clear,0,2013-05-04 07:30:00
3:50 AM,41.0,37.4,87,30.30,10.0,Calm,Calm,-,N/A,,Clear,0,2013-05-04 07:50:00
4:10 AM,41.0,37.4,87,30.30,10.0,Calm,Calm,-,N/A,,Mostly Cloudy,0,2013-05-04 08:10:00
4:30 AM,42.8,39.2,87,30.30,10.0,Calm,Calm,-,N/A,,Overcast,0,2013-05-04 08:30:00
4:50 AM,42.8,39.2,87,30.30,10.0,Calm,Calm,-,N/A,,Overcast,0,2013-05-04 08:50:00
5:10 AM,42.8,39.2,87,30.30,10.0,Calm,Calm,-,N/A,,Overcast,0,2013-05-04 09:10:00
5:30 AM,44.6,41.0,87,30.30,10.0,Calm,Calm,-,N/A,,Overcast,0,2013-05-04 09:30:00
5:50 AM,42.8,39.2,87,30.30,10.0,Calm,Calm,-,N/A,,Overcast,0,2013-05-04 09:50:00
6:10 AM,42.8,39.2,87,30.31,10.0,Calm,Calm,-,N/A,,Overcast,0,2013-05-04 10:10:00
6:30 AM,41.0,37.4,87,30.31,10.0,Calm,Calm,-,N/A,,Scattered Clouds,0,2013-05-04 10:30:00
6:50 AM,42.8,39.2,87,30.31,10.0,Calm,Calm,-,N/A,,Clear,0,2013-05-04 10:50:00
7:10 AM,42.8,39.2,87,30.31,10.0,Calm,Calm,-,N/A,,Clear,0,2013-05-04 11:10:00
7:30 AM,44.6,41.0,87,30.31,10.0,Calm,Calm,-,N/A,,Clear,0,2013-05-04 11:30:00
7:50 AM,44.6,41.0,87,30.32,10.0,Calm,Calm,-,N/A,,Clear,0,2013-05-04 11:50:00
8:10 AM,46.4,42.8,87,30.32,10.0,Calm,Calm,-,N/A,,Clear,0,2013-05-04 12:10:00
8:30 AM,48.2,42.8,82,30.32,10.0,Calm,Calm,-,N/A,,Clear,0,2013-05-04 12:30:00
8:50 AM,50.0,44.6,82,30.32,10.0,ENE,3.5,-,N/A,,Clear,60,2013-05-04 12:50:00
9:10 AM,51.8,42.8,71,30.31,10.0,East,4.6,-,N/A,,Clear,90,2013-05-04 13:10:00
9:30 AM,53.6,39.2,58,30.31,10.0,ESE,5.8,-,N/A,,Clear,120,2013-05-04 13:30:00
9:50 AM,55.4,39.2,54,30.31,10.0,East,5.8,-,N/A,,Clear,90,2013-05-04 13:50:00
10:10 AM,55.4,37.4,51,30.30,10.0,SE,8.1,-,N/A,,Clear,140,2013-05-04 14:10:00
10:30 AM,57.2,35.6,44,30.30,10.0,East,6.9,-,N/A,,Clear,90,2013-05-04 14:30:00
10:50 AM,57.2,37.4,48,30.30,10.0,ESE,4.6,-,N/A,,Clear,110,2013-05-04 14:50:00
11:10 AM,60.8,35.6,39,30.30,10.0,East,4.6,-,N/A,,Clear,100,2013-05-04 15:10:00
11:30 AM,59.0,35.6,42,30.29,10.0,East,4.6,-,N/A,,Clear,90,2013-05-04 15:30:00
11:50 AM,60.8,35.6,39,30.29,10.0,ENE,4.6,-,N/A,,Clear,60,2013-05-04 15:50:00
12:10 PM,62.6,37.4,39,30.28,10.0,ENE,4.6,-,N/A,,Clear,70,2013-05-04 16:10:00
12:30 PM,62.6,37.4,39,30.27,10.0,Calm,Calm,-,N/A,,Clear,0,2013-05-04 16:30:00
12:50 PM,64.4,35.6,34,30.27,10.0,ESE,6.9,-,N/A,,Clear,120,2013-05-04 16:50:00
1:10 PM,66.2,35.6,32,30.26,10.0,ESE,6.9,-,N/A,,Clear,120,2013-05-04 17:10:00
1:30 PM,66.2,35.6,32,30.26,7.0,East,6.9,-,N/A,,Clear,80,2013-05-04 17:30:00
1:50 PM,66.2,37.4,35,30.25,10.0,East,6.9,-,N/A,,Clear,90,2013-05-04 17:50:00
2:10 PM,68.0,37.4,33,30.25,10.0,East,8.1,-,N/A,,Clear,100,2013-05-04 18:10:00
2:30 PM,68.0,37.4,33,30.24,10.0,East,4.6,-,N/A,,Clear,100,2013-05-04 18:30:00
2:50 PM,69.8,33.8,27,30.23,10.0,East,9.2,-,N/A,,Clear,90,2013-05-04 18:50:00
3:10 PM,68.0,37.4,33,30.23,10.0,ESE,4.6,-,N/A,,Clear,110,2013-05-04 19:10:00
3:30 PM,69.8,33.8,27,30.22,10.0,East,6.9,16.1,N/A,,Clear,100,2013-05-04 19:30:00
3:50 PM,69.8,35.6,28,30.22,10.0,ESE,9.2,18.4,N/A,,Clear,110,2013-05-04 19:50:00
4:10 PM,71.6,35.6,27,30.21,10.0,ESE,9.2,-,N/A,,Clear,120,2013-05-04 20:10:00
4:30 PM,69.8,33.8,27,30.21,10.0,East,5.8,17.3,N/A,,Clear,90,2013-05-04 20:30:00
4:50 PM,69.8,33.8,27,30.21,10.0,SE,8.1,16.1,N/A,,Clear,130,2013-05-04 20:50:00
5:10 PM,69.8,35.6,28,30.20,10.0,SSE,9.2,-,N/A,,Clear,150,2013-05-04 21:10:00
5:30 PM,69.8,35.6,28,30.20,10.0,SE,13.8,17.3,N/A,,Clear,130,2013-05-04 21:30:00
5:50 PM,69.8,37.4,31,30.20,10.0,ESE,6.9,-,N/A,,Clear,120,2013-05-04 21:50:00
6:10 PM,68.0,35.6,30,30.20,10.0,SE,11.5,-,N/A,,Clear,140,2013-05-04 22:10:00
6:30 PM,66.2,37.4,35,30.20,10.0,SE,3.5,-,N/A,,Clear,140,2013-05-04 22:30:00
6:50 PM,66.2,37.4,35,30.20,10.0,ESE,4.6,-,N/A,,Clear,120,2013-05-04 22:50:00
7:10 PM,66.2,37.4,35,30.20,10.0,Calm,Calm,-,N/A,,Clear,0,2013-05-04 23:10:00
7:30 PM,64.4,41.0,42,30.20,10.0,ESE,3.5,-,N/A,,Clear,110,2013-05-04 23:30:00
7:50 PM,64.4,39.2,40,30.20,10.0,Calm,Calm,-,N/A,,Clear,0,2013-05-04 23:50:00
8:10 PM,62.6,42.8,48,30.20,10.0,ESE,5.8,-,N/A,,Clear,120,2013-05-05 00:10:00
8:30 PM,60.8,42.8,52,30.21,10.0,SE,6.9,-,N/A,,Clear,130,2013-05-05 00:30:00
8:50 PM,59.0,42.8,55,30.22,10.0,SSE,9.2,-,N/A,,Clear,150,2013-05-05 00:50:00
9:10 PM,57.2,42.8,59,30.23,10.0,SSE,8.1,-,N/A,,Clear,150,2013-05-05 01:10:00
9:30 PM,57.2,41.0,55,30.23,10.0,South,6.9,-,N/A,,Clear,170,2013-05-05 01:30:00
9:50 PM,55.4,41.0,58,30.23,10.0,South,5.8,-,N/A,,Clear,170,2013-05-05 01:50:00
10:10 PM,55.4,41.0,58,30.24,10.0,South,3.5,-,N/A,,Clear,170,2013-05-05 02:10:00
10:30 PM,55.4,41.0,58,30.24,10.0,SE,3.5,-,N/A,,Clear,140,2013-05-05 02:30:00
10:50 PM,53.6,39.2,58,30.24,10.0,Calm,Calm,-,N/A,,Clear,0,2013-05-05 02:50:00
11:30 PM,53.6,39.2,58,30.24,10.0,SE,6.9,-,N/A,,Clear,140,2013-05-05 03:30:00
11:50 PM,51.8,39.2,62,30.24,10.0,SE,6.9,-,N/A,,Clear,140,2013-05-05 03:50:00